Time,TemperatureF,DewpointF,PressureIn,WindDirection,WindDirectionDegrees,WindSpeedMPH,WindSpeedGustMPH,Humidity,HourlyPrecipIn,Conditions,Clouds,dailyrainin,SolarRadiationWatts/m^2,SoftwareType,DateUTC
2013-02-01 00:00:00,16.0,10.0,-100.00,SSE,157,11.0,-999.0,75,-99.99,,,-99.99,0.000000,,2013-02-01 05:00:00,
2013-02-01 00:32:00,16.0,10.0,-100.00,SSE,157,11.0,-999.0,75,-99.99,,,-99.99,0.000000,,2013-02-01 05:32:00,
2013-02-01 00:42:00,16.0,10.0,-100.00,SSE,157,11.0,-999.0,75,-99.99,,,-99.99,0.000000,,2013-02-01 05:42:00,
2013-02-01 00:52:00,16.0,10.0,-100.00,SSE,157,11.0,-999.0,75,-99.99,,,-99.99,0.000000,,2013-02-01 05:52:00,
2013-02-01 01:00:00,16.0,9.0,-100.00,SSW,202,11.0,-999.0,73,-99.99,,,-99.99,0.000000,,2013-02-01 06:00:00,
2013-02-01 01:42:00,16.0,9.0,-100.00,SSW,202,11.0,-999.0,73,-99.99,,,-99.99,0.000000,,2013-02-01 06:42:00,
2013-02-01 01:52:00,16.0,9.0,-100.00,SSW,202,11.0,-999.0,73,-99.99,,,-99.99,0.000000,,2013-02-01 06:52:00,
2013-02-01 02:00:00,16.0,9.0,-100.00,South,180,11.0,-999.0,74,-99.99,,,-99.99,0.000000,,2013-02-01 07:00:00,
2013-02-01 02:42:00,16.0,9.0,-100.00,South,180,11.0,-999.0,74,-99.99,,,-99.99,0.000000,,2013-02-01 07:42:00,
2013-02-01 02:52:00,16.0,9.0,-100.00,South,180,11.0,-999.0,74,-99.99,,,-99.99,0.000000,,2013-02-01 07:52:00,
2013-02-01 03:00:00,16.0,9.0,-100.00,SSW,202,11.0,-999.0,73,-99.99,,,-99.99,0.000000,,2013-02-01 08:00:00,
2013-02-01 03:42:00,16.0,9.0,-100.00,SSW,202,11.0,-999.0,73,-99.99,,,-99.99,0.000000,,2013-02-01 08:42:00,
2013-02-01 03:52:00,16.0,9.0,-100.00,SSW,202,11.0,-999.0,73,-99.99,,,-99.99,0.000000,,2013-02-01 08:52:00,
2013-02-01 04:00:00,16.0,7.0,-100.00,SSW,202,11.0,-999.0,69,-99.99,,,-99.99,0.000000,,2013-02-01 09:00:00,
2013-02-01 04:42:00,16.0,7.0,-100.00,SSW,202,11.0,-999.0,69,-99.99,,,-99.99,0.000000,,2013-02-01 09:42:00,
2013-02-01 04:52:00,16.0,7.0,-100.00,SSW,202,11.0,-999.0,69,-99.99,,,-99.99,0.000000,,2013-02-01 09:52:00,
2013-02-01 05:00:00,15.0,8.0,-100.00,SSW,202,11.0,-999.0,71,-99.99,,,-99.99,0.000000,,2013-02-01 10:00:00,
2013-02-01 05:43:00,15.0,8.0,-100.00,SSW,202,11.0,-999.0,71,-99.99,,,-99.99,0.000000,,2013-02-01 10:43:00,
2013-02-01 05:53:00,15.0,8.0,-100.00,SSW,202,11.0,-999.0,71,-99.99,,,-99.99,0.000000,,2013-02-01 10:53:00,
2013-02-01 06:00:00,15.0,7.0,-100.00,SSW,202,10.0,-999.0,70,-99.99,,,-99.99,0.000000,,2013-02-01 11:00:00,
2013-02-01 06:32:00,15.0,7.0,-100.00,SSW,202,10.0,-999.0,70,-99.99,,,-99.99,0.000000,,2013-02-01 11:32:00,
2013-02-01 06:42:00,15.0,7.0,-100.00,SSW,202,10.0,-999.0,70,-99.99,,,-99.99,0.000000,,2013-02-01 11:42:00,
2013-02-01 06:53:00,15.0,7.0,-100.00,SSW,202,10.0,-999.0,70,-99.99,,,-99.99,0.000000,,2013-02-01 11:53:00,
2013-02-01 07:00:00,15.0,6.0,-100.00,WSW,247,10.0,-999.0,68,-99.99,,,-99.99,0.000000,,2013-02-01 12:00:00,
2013-02-01 07:32:00,15.0,6.0,-100.00,WSW,247,10.0,-999.0,68,-99.99,,,-99.99,0.000000,,2013-02-01 12:32:00,
2013-02-01 07:42:00,15.0,6.0,-100.00,WSW,247,10.0,-999.0,68,-99.99,,,-99.99,0.000000,,2013-02-01 12:42:00,
2013-02-01 07:52:00,15.0,6.0,-100.00,WSW,247,10.0,-999.0,68,-99.99,,,-99.99,0.000000,,2013-02-01 12:52:00,
2013-02-01 08:00:00,14.0,6.0,-100.00,SSW,202,10.0,-999.0,69,-99.99,,,-99.99,0.000000,,2013-02-01 13:00:00,
2013-02-01 08:43:00,14.0,6.0,-100.00,SSW,202,10.0,-999.0,69,-99.99,,,-99.99,0.000000,,2013-02-01 13:43:00,
2013-02-01 08:53:00,14.0,6.0,-100.00,SSW,202,10.0,-999.0,69,-99.99,,,-99.99,0.000000,,2013-02-01 13:53:00,
2013-02-01 09:00:00,14.0,7.0,-100.00,SSW,202,10.0,-999.0,74,-99.99,,,-99.99,12.760000,,2013-02-01 14:00:00,
2013-02-01 09:42:00,14.0,7.0,-100.00,SSW,202,10.0,-999.0,74,-99.99,,,-99.99,12.760000,,2013-02-01 14:42:00,
2013-02-01 09:53:00,14.0,7.0,-100.00,SSW,202,10.0,-999.0,74,-99.99,,,-99.99,12.760000,,2013-02-01 14:53:00,
2013-02-01 10:00:00,14.0,7.0,-100.00,SW,225,9.0,-999.0,73,-99.99,,,-99.99,46.400002,,2013-02-01 15:00:00,
2013-02-01 10:42:00,14.0,7.0,-100.00,SW,225,9.0,-999.0,73,-99.99,,,-99.99,46.400002,,2013-02-01 15:42:00,
2013-02-01 10:52:00,14.0,7.0,-100.00,SW,225,9.0,-999.0,73,-99.99,,,-99.99,46.400002,,2013-02-01 15:52:00,
2013-02-01 11:00:00,14.0,7.0,-100.00,SW,225,11.0,-999.0,74,-99.99,,,-99.99,56.840000,,2013-02-01 16:00:00,
2013-02-01 11:43:00,14.0,7.0,-100.00,SW,225,11.0,-999.0,74,-99.99,,,-99.99,56.840000,,2013-02-01 16:43:00,
2013-02-01 11:53:00,14.0,7.0,-100.00,SW,225,11.0,-999.0,74,-99.99,,,-99.99,56.840000,,2013-02-01 16:53:00,
2013-02-01 12:00:00,13.0,7.0,-100.00,WSW,247,9.0,-999.0,75,-99.99,,,-99.99,102.080002,,2013-02-01 17:00:00,
2013-02-01 12:42:00,13.0,7.0,-100.00,WSW,247,9.0,-999.0,75,-99.99,,,-99.99,102.080002,,2013-02-01 17:42:00,
2013-02-01 12:53:00,13.0,7.0,-100.00,WSW,247,9.0,-999.0,75,-99.99,,,-99.99,102.080002,,2013-02-01 17:53:00,
2013-02-01 13:00:00,13.0,7.0,-100.00,WSW,247,9.0,-999.0,75,-99.99,,,-99.99,122.959999,,2013-02-01 18:00:00,
2013-02-01 13:33:00,13.0,7.0,-100.00,WSW,247,9.0,-999.0,75,-99.99,,,-99.99,122.959999,,2013-02-01 18:33:00,
2013-02-01 13:42:00,13.0,7.0,-100.00,WSW,247,9.0,-999.0,75,-99.99,,,-99.99,122.959999,,2013-02-01 18:42:00,
2013-02-01 13:53:00,13.0,7.0,-100.00,WSW,247,9.0,-999.0,75,-99.99,,,-99.99,122.959999,,2013-02-01 18:53:00,
2013-02-01 14:00:00,13.0,7.0,-100.00,SW,225,10.0,-999.0,74,-99.99,,,-99.99,118.320000,,2013-02-01 19:00:00,
2013-02-01 14:42:00,13.0,7.0,-100.00,SW,225,10.0,-999.0,74,-99.99,,,-99.99,118.320000,,2013-02-01 19:42:00,
2013-02-01 14:52:00,13.0,7.0,-100.00,SW,225,10.0,-999.0,74,-99.99,,,-99.99,118.320000,,2013-02-01 19:52:00,
2013-02-01 15:00:00,13.0,7.0,-100.00,SW,225,11.0,-999.0,76,-99.99,,,-99.99,91.639999,,2013-02-01 20:00:00,
2013-02-01 15:42:00,13.0,7.0,-100.00,SW,225,11.0,-999.0,76,-99.99,,,-99.99,91.639999,,2013-02-01 20:42:00,
2013-02-01 15:52:00,13.0,7.0,-100.00,SW,225,11.0,-999.0,76,-99.99,,,-99.99,91.639999,,2013-02-01 20:52:00,
2013-02-01 16:00:00,13.0,7.0,-100.00,SSW,202,12.0,-999.0,76,-99.99,,,-99.99,75.400002,,2013-02-01 21:00:00,
2013-02-01 16:32:00,13.0,7.0,-100.00,SSW,202,12.0,-999.0,76,-99.99,,,-99.99,75.400002,,2013-02-01 21:32:00,
2013-02-01 16:42:00,13.0,7.0,-100.00,SSW,202,12.0,-999.0,76,-99.99,,,-99.99,75.400002,,2013-02-01 21:42:00,
2013-02-01 16:53:00,13.0,7.0,-100.00,SSW,202,12.0,-999.0,76,-99.99,,,-99.99,75.400002,,2013-02-01 21:53:00,
2013-02-01 17:00:00,12.0,8.0,-100.00,SSW,202,12.0,-999.0,81,-99.99,,,-99.99,29.000000,,2013-02-01 22:00:00,
2013-02-01 17:42:00,12.0,8.0,-100.00,SSW,202,12.0,-999.0,81,-99.99,,,-99.99,29.000000,,2013-02-01 22:42:00,
2013-02-01 17:52:00,12.0,8.0,-100.00,SSW,202,12.0,-999.0,81,-99.99,,,-99.99,29.000000,,2013-02-01 22:52:00,
2013-02-01 18:00:00,13.0,7.0,-100.00,SSW,202,10.0,-999.0,77,-99.99,,,-99.99,4.640000,,2013-02-01 23:00:00,
2013-02-01 18:42:00,13.0,7.0,-100.00,SSW,202,10.0,-999.0,77,-99.99,,,-99.99,4.640000,,2013-02-01 23:42:00,
2013-02-01 18:52:00,13.0,7.0,-100.00,SSW,202,10.0,-999.0,77,-99.99,,,-99.99,4.640000,,2013-02-01 23:52:00,
2013-02-01 19:00:00,13.0,7.0,-100.00,SSW,202,11.0,-999.0,78,-99.99,,,-99.99,0.000000,,2013-02-02 00:00:00,
2013-02-01 19:42:00,13.0,7.0,-100.00,SSW,202,11.0,-999.0,78,-99.99,,,-99.99,0.000000,,2013-02-02 00:42:00,
2013-02-01 19:52:00,13.0,7.0,-100.00,SSW,202,11.0,-999.0,78,-99.99,,,-99.99,0.000000,,2013-02-02 00:52:00,
2013-02-01 20:00:00,12.0,7.0,-100.00,SSW,202,12.0,-999.0,78,-99.99,,,-99.99,0.000000,,2013-02-02 01:00:00,
2013-02-01 20:42:00,12.0,7.0,-100.00,SSW,202,12.0,-999.0,78,-99.99,,,-99.99,0.000000,,2013-02-02 01:42:00,
2013-02-01 20:52:00,12.0,7.0,-100.00,SSW,202,12.0,-999.0,78,-99.99,,,-99.99,0.000000,,2013-02-02 01:52:00,
2013-02-01 21:00:00,11.0,5.0,-100.00,SSW,202,14.0,-999.0,75,-99.99,,,-99.99,0.000000,,2013-02-02 02:00:00,
2013-02-01 21:42:00,11.0,5.0,-100.00,SSW,202,14.0,-999.0,75,-99.99,,,-99.99,0.000000,,2013-02-02 02:42:00,
2013-02-01 21:52:00,11.0,5.0,-100.00,SSW,202,14.0,-999.0,75,-99.99,,,-99.99,0.000000,,2013-02-02 02:52:00,
2013-02-01 22:00:00,10.0,4.0,-100.00,SSW,202,12.0,-999.0,76,-99.99,,,-99.99,0.000000,,2013-02-02 03:00:00,
2013-02-01 22:42:00,10.0,4.0,-100.00,SSW,202,12.0,-999.0,76,-99.99,,,-99.99,0.000000,,2013-02-02 03:42:00,
2013-02-01 22:52:00,10.0,4.0,-100.00,SSW,202,12.0,-999.0,76,-99.99,,,-99.99,0.000000,,2013-02-02 03:52:00,
2013-02-01 23:00:00,10.0,4.0,-100.00,SSW,202,11.0,-999.0,74,-99.99,,,-99.99,0.000000,,2013-02-02 04:00:00,
2013-02-01 23:33:00,10.0,4.0,-100.00,SSW,202,11.0,-999.0,74,-99.99,,,-99.99,0.000000,,2013-02-02 04:33:00,
2013-02-01 23:42:00,10.0,4.0,-100.00,SSW,202,11.0,-999.0,74,-99.99,,,-99.99,0.000000,,2013-02-02 04:42:00,
2013-02-01 23:52:00,10.0,4.0,-100.00,SSW,202,11.0,-999.0,74,-99.99,,,-99.99,0.000000,,2013-02-02 04:52:00,